| time (UTC) | temp F | wind direction | speed MPH | gust MPH | rain 1hr in | rain 24hr in | rain mn in | humidity % | barometer mb |
| 20260906161011 | 88 | 208 | 4.0 | 7.0 | 0.00 | 0.00 | 0.00 | 60 | 1021.6 |
| 20260906160014 | 88 | 233 | 3.0 | 6.0 | 0.00 | 0.00 | 0.00 | 59 | 1021.6 |
| 20260906155010 | 89 | 212 | 5.0 | 9.0 | 0.00 | 0.00 | 0.00 | 54 | 1021.6 |
| 20260906154010 | 89 | 232 | 4.0 | 9.0 | 0.00 | 0.00 | 0.00 | 55 | 1021.6 |
| 20260906153010 | 89 | 228 | 5.0 | 10.0 | 0.00 | 0.00 | 0.00 | 55 | 1021.7 |
| 20260906151012 | 90 | 211 | 5.0 | 11.0 | 0.00 | 0.00 | 0.00 | 49 | 1021.7 |
| 20260906150014 | 90 | 226 | 4.0 | 8.0 | 0.00 | 0.00 | 0.00 | 51 | 1021.7 |
| 20260906145011 | 89 | 220 | 5.0 | 9.0 | 0.00 | 0.00 | 0.00 | 54 | 1021.7 |
| 20260906144009 | 89 | 227 | 5.0 | 9.0 | 0.00 | 0.00 | 0.00 | 53 | 1021.7 |
| 20260906143010 | 90 | 232 | 5.0 | 9.0 | 0.00 | 0.00 | 0.00 | 51 | 1021.7 |
| 20260906142010 | 90 | 245 | 4.0 | 10.0 | 0.00 | 0.00 | 0.00 | 50 | 1021.7 |
| 20260906141010 | 90 | 221 | 6.0 | 10.0 | 0.00 | 0.00 | 0.00 | 50 | 1021.8 |
| 20260906140012 | 91 | 227 | 5.0 | 9.0 | 0.00 | 0.00 | 0.00 | 50 | 1021.8 |
| 20260906135013 | 91 | 217 | 5.0 | 11.0 | 0.00 | 0.00 | 0.00 | 53 | 1021.9 |
| 20260906133011 | 90 | 231 | 6.0 | 11.0 | 0.00 | 0.00 | 0.00 | 53 | 1022.0 |
| 20260906132011 | 91 | 219 | 5.0 | 11.0 | 0.00 | 0.00 | 0.00 | 54 | 1022.0 |
| 20260906131010 | 90 | 196 | 7.0 | 13.0 | 0.00 | 0.00 | 0.00 | 53 | 1022.0 |
| 20260906130016 | 90 | 199 | 5.0 | 12.0 | 0.00 | 0.00 | 0.00 | 56 | 1022.0 |
| 20260906125010 | 89 | 195 | 6.0 | 10.0 | 0.00 | 0.00 | 0.00 | 60 | 1022.1 |
| 20260906124011 | 89 | 194 | 6.0 | 11.0 | 0.00 | 0.00 | 0.00 | 65 | 1022.0 |
| 20260906123011 | 89 | 220 | 4.0 | 10.0 | 0.00 | 0.00 | 0.00 | 69 | 1022.1 |
| 20260906122014 | 88 | 204 | 7.0 | 13.0 | 0.00 | 0.00 | 0.00 | 68 | 1022.1 |
| 20260906121010 | 89 | 205 | 5.0 | 10.0 | 0.00 | 0.00 | 0.00 | 69 | 1022.2 |
| 20260906120012 | 88 | 208 | 6.0 | 10.0 | 0.00 | 0.00 | 0.00 | 66 | 1022.3 |
| 20260906115011 | 89 | 187 | 5.0 | 10.0 | 0.00 | 0.00 | 0.00 | 67 | 1022.2 |
| 20260906114013 | 89 | 208 | 5.0 | 10.0 | 0.00 | 0.00 | 0.00 | 67 | 1022.2 |
| 20260906113010 | 89 | 194 | 6.0 | 11.0 | 0.00 | 0.00 | 0.00 | 66 | 1022.2 |
| 20260906112011 | 90 | 178 | 5.0 | 10.0 | 0.00 | 0.00 | 0.00 | 64 | 1022.2 |
| 20260906111009 | 90 | 188 | 4.0 | 10.0 | 0.00 | 0.00 | 0.00 | 62 | 1022.1 |
| 20260906110018 | 89 | 190 | 4.0 | 8.0 | 0.00 | 0.00 | 0.00 | 62 | 1022.2 |
| 20260906105011 | 90 | 182 | 4.0 | 10.0 | 0.00 | 0.00 | 0.00 | 57 | 1022.4 |
| 20260906104012 | 89 | 184 | 4.0 | 9.0 | 0.00 | 0.00 | 0.00 | 61 | 1022.4 |
| 20260906103009 | 89 | 176 | 4.0 | 11.0 | 0.00 | 0.00 | 0.00 | 64 | 1022.3 |
| 20260906102010 | 89 | 177 | 3.0 | 7.0 | 0.00 | 0.00 | 0.00 | 64 | 1022.5 |
| 20260906101017 | 88 | 172 | 3.0 | 8.0 | 0.00 | 0.00 | 0.00 | 65 | 1022.5 |
| 20260906100014 | 87 | 149 | 3.0 | 8.0 | 0.00 | 0.00 | 0.00 | 66 | 1022.6 |
| 20260906095010 | 87 | 168 | 4.0 | 9.0 | 0.00 | 0.00 | 0.00 | 67 | 1022.7 |
| 20260906094013 | 87 | 187 | 4.0 | 8.0 | 0.00 | 0.00 | 0.00 | 66 | 1022.6 |
| 20260906093013 | 87 | 162 | 3.0 | 7.0 | 0.00 | 0.00 | 0.00 | 65 | 1022.7 |
| 20260906091014 | 85 | 181 | 4.0 | 6.0 | 0.00 | 0.00 | 0.00 | 66 | 1022.6 |
| 20260906090010 | 85 | 185 | 3.0 | 8.0 | 0.00 | 0.00 | 0.00 | 66 | 1022.6 |
| 20260906085011 | 84 | 184 | 3.0 | 6.0 | 0.00 | 0.00 | 0.00 | 68 | 1022.5 |
| 20260906084010 | 83 | 185 | 3.0 | 6.0 | 0.00 | 0.00 | 0.00 | 70 | 1022.4 |
| 20260906083012 | 82 | 185 | 4.0 | 7.0 | 0.00 | 0.00 | 0.00 | 71 | 1022.4 |
| 20260906082014 | 82 | 184 | 4.0 | 7.0 | 0.00 | 0.00 | 0.00 | 71 | 1022.4 |
| 20260906081010 | 82 | 186 | 4.0 | 6.0 | 0.00 | 0.00 | 0.00 | 71 | 1022.4 |
| 20260906080012 | 82 | 208 | 2.0 | 4.0 | 0.00 | 0.00 | 0.00 | 66 | 1022.3 |
| 20260906075010 | 82 | 216 | 2.0 | 5.0 | 0.00 | 0.00 | 0.00 | 64 | 1022.3 |
| 20260906074010 | 81 | 217 | 2.0 | 3.0 | 0.00 | 0.00 | 0.00 | 58 | 1022.2 |
| 20260906072013 | 80 | 271 | 1.0 | 3.0 | 0.00 | 0.00 | 0.00 | 59 | 1022.2 |
| 20260906071009 | 79 | 345 | 0.0 | 1.0 | 0.00 | 0.00 | 0.00 | 57 | 1022.1 |
| 20260906070012 | 78 | 345 | 0.0 | 1.0 | 0.00 | 0.00 | 0.00 | 56 | 1022.2 |
| 20260906065012 | 77 | 345 | 1.0 | 2.0 | 0.00 | 0.00 | 0.00 | 56 | 1022.1 |
| 20260906064015 | 76 | 345 | 2.0 | 4.0 | 0.00 | 0.00 | 0.00 | 55 | 1022.1 |
| 20260906063009 | 75 | 345 | 3.0 | 4.0 | 0.00 | 0.00 | 0.00 | 55 | 1022.0 |
| 20260906061009 | 75 | 334 | 3.0 | 4.0 | 0.00 | 0.00 | 0.00 | 54 | 1021.8 |
| 20260906060012 | 75 | 335 | 3.0 | 4.0 | 0.00 | 0.00 | 0.00 | 53 | 1021.7 |
| 20260906055010 | 75 | 334 | 3.0 | 4.0 | 0.00 | 0.00 | 0.00 | 54 | 1021.6 |
| 20260906053009 | 74 | 312 | 3.0 | 6.0 | 0.00 | 0.00 | 0.00 | 55 | 1021.5 |
| 20260906052009 | 74 | 308 | 3.0 | 6.0 | 0.00 | 0.00 | 0.00 | 55 | 1021.6 |
| 20260906051011 | 74 | 336 | 3.0 | 5.0 | 0.00 | 0.00 | 0.00 | 55 | 1021.6 |
| 20260906050011 | 74 | 348 | 3.0 | 5.0 | 0.00 | 0.00 | 0.00 | 56 | 1021.7 |
| 20260906044015 | 74 | 348 | 3.0 | 4.0 | 0.00 | 0.00 | 0.00 | 57 | 1021.6 |
| 20260906042012 | 74 | 349 | 3.0 | 5.0 | 0.00 | 0.00 | 0.00 | 58 | 1021.7 |
| 20260906041011 | 74 | 347 | 4.0 | 5.0 | 0.00 | 0.00 | 0.00 | 57 | 1021.9 |
| 20260906040010 | 73 | 333 | 3.0 | 4.0 | 0.00 | 0.00 | 0.00 | 58 | 1021.8 |
| 20260906035011 | 74 | 330 | 3.0 | 4.0 | 0.00 | 0.00 | 0.00 | 58 | 1021.9 |
| 20260906034010 | 74 | 342 | 3.0 | 5.0 | 0.00 | 0.00 | 0.00 | 56 | 1021.9 |
| 20260906032010 | 73 | 335 | 3.0 | 4.0 | 0.00 | 0.00 | 0.00 | 58 | 1022.0 |
| 20260906031011 | 74 | 348 | 3.0 | 4.0 | 0.00 | 0.00 | 0.00 | 59 | 1022.1 |
| 20260906030011 | 73 | 349 | 2.0 | 4.0 | 0.00 | 0.00 | 0.00 | 59 | 1022.1 |
| 20260906024009 | 73 | 348 | 3.0 | 4.0 | 0.00 | 0.00 | 0.00 | 60 | 1022.0 |
| 20260906021010 | 72 | 349 | 2.0 | 4.0 | 0.00 | 0.00 | 0.00 | 65 | 1022.3 |
| 20260906020011 | 72 | 348 | 2.0 | 4.0 | 0.00 | 0.00 | 0.00 | 66 | 1022.3 |
| 20260906015010 | 72 | 349 | 2.0 | 4.0 | 0.00 | 0.00 | 0.00 | 67 | 1022.3 |
| 20260906014009 | 72 | 348 | 2.0 | 4.0 | 0.00 | 0.00 | 0.00 | 70 | 1022.4 |
| 20260906013011 | 72 | 348 | 3.0 | 5.0 | 0.00 | 0.00 | 0.00 | 73 | 1022.5 |
| 20260906012012 | 71 | 349 | 3.0 | 4.0 | 0.00 | 0.00 | 0.00 | 74 | 1022.4 |
| 20260906011009 | 71 | 349 | 3.0 | 4.0 | 0.00 | 0.00 | 0.00 | 76 | 1022.5 |
| 20260906005021 | 71 | 349 | 1.0 | 3.0 | 0.00 | 0.00 | 0.00 | 79 | 1022.6 |
| 20260906004022 | 72 | 349 | 1.0 | 2.0 | 0.00 | 0.00 | 0.00 | 80 | 1022.6 |
| 20260906002021 | 73 | 349 | 2.0 | 3.0 | 0.00 | 0.00 | 0.00 | 80 | 1022.6 |
| 20260906001020 | 73 | 348 | 2.0 | 3.0 | 0.00 | 0.00 | 0.00 | 79 | 1022.8 |
| 20260906000021 | 73 | 349 | 2.0 | 4.0 | 0.00 | 0.00 | 0.00 | 79 | 1022.8 |
| 20260905235021 | 73 | 349 | 1.0 | 3.0 | 0.00 | 0.00 | 0.00 | 78 | 1022.9 |
| 20260905233022 | 73 | 349 | 2.0 | 4.0 | 0.00 | 0.00 | 0.00 | 72 | 1022.9 |
| 20260905232020 | 73 | 348 | 3.0 | 4.0 | 0.00 | 0.00 | 0.00 | 70 | 1022.8 |
| 20260905231021 | 73 | 348 | 3.0 | 4.0 | 0.00 | 0.00 | 0.00 | 71 | 1022.9 |
| 20260905230024 | 73 | 348 | 2.0 | 4.0 | 0.00 | 0.00 | 0.00 | 72 | 1022.9 |
| 20260905225022 | 73 | 348 | 2.0 | 5.0 | 0.00 | 0.00 | 0.00 | 73 | 1022.9 |
| 20260905224025 | 74 | 349 | 2.0 | 4.0 | 0.00 | 0.00 | 0.00 | 70 | 1022.8 |
| 20260905223025 | 74 | 349 | 1.0 | 3.0 | 0.00 | 0.00 | 0.00 | 74 | 1023.0 |
| 20260905222024 | 74 | 349 | 2.0 | 4.0 | 0.00 | 0.00 | 0.00 | 71 | 1022.7 |
| 20260905220023 | 74 | 349 | 2.0 | 3.0 | 0.00 | 0.00 | 0.00 | 72 | 1022.9 |
| 20260905215024 | 74 | 348 | 1.0 | 3.0 | 0.00 | 0.00 | 0.00 | 72 | 1022.9 |
| 20260905214021 | 73 | 348 | 2.0 | 4.0 | 0.00 | 0.00 | 0.00 | 73 | 1022.7 |
| 20260905213022 | 73 | 349 | 3.0 | 5.0 | 0.00 | 0.00 | 0.00 | 76 | 1022.8 |
| 20260905212021 | 73 | 348 | 2.0 | 3.0 | 0.00 | 0.00 | 0.00 | 77 | 1022.8 |
| 20260905211022 | 74 | 349 | 1.0 | 2.0 | 0.00 | 0.00 | 0.00 | 77 | 1022.9 |
| 20260905210026 | 74 | 349 | 1.0 | 3.0 | 0.00 | 0.00 | 0.00 | 75 | 1023.0 |
| 20260905205026 | 73 | 348 | 2.0 | 4.0 | 0.00 | 0.00 | 0.00 | 73 | 1023.0 |
| 20260905204022 | 73 | 349 | 2.0 | 4.0 | 0.00 | 0.00 | 0.00 | 76 | 1023.1 |
| 20260905203020 | 73 | 251 | 3.0 | 4.0 | 0.00 | 0.00 | 0.00 | 78 | 1023.1 |
| 20260905202024 | 75 | 225 | 1.0 | 3.0 | 0.00 | 0.00 | 0.00 | 86 | 1023.2 |
| 20260905201022 | 75 | 225 | 1.0 | 3.0 | 0.00 | 0.00 | 0.00 | 87 | 1023.1 |
| 20260905200026 | 75 | 225 | 1.0 | 3.0 | 0.00 | 0.00 | 0.00 | 86 | 1023.1 |
| 20260905195020 | 76 | 225 | 1.0 | 3.0 | 0.00 | 0.00 | 0.00 | 87 | 1023.1 |
| 20260905194021 | 77 | 209 | 3.0 | 6.0 | 0.00 | 0.00 | 0.00 | 87 | 1022.9 |
| 20260905193020 | 78 | 202 | 2.0 | 6.0 | 0.00 | 0.00 | 0.00 | 86 | 1022.8 |
| 20260905192022 | 78 | 218 | 2.0 | 3.0 | 0.00 | 0.00 | 0.00 | 85 | 1022.7 |
| 20260905191021 | 78 | 265 | 2.0 | 6.0 | 0.00 | 0.00 | 0.00 | 85 | 1022.5 |
| 20260905185020 | 79 | 246 | 3.0 | 6.0 | 0.00 | 0.00 | 0.00 | 84 | 1022.3 |
| 20260905184022 | 79 | 236 | 3.0 | 5.0 | 0.00 | 0.00 | 0.00 | 83 | 1022.4 |
| 20260905183021 | 79 | 223 | 3.0 | 5.0 | 0.00 | 0.00 | 0.00 | 82 | 1022.1 |
| 20260905182021 | 80 | 233 | 4.0 | 7.0 | 0.00 | 0.00 | 0.00 | 82 | 1022.2 |
| 20260905180025 | 81 | 238 | 3.0 | 7.0 | 0.00 | 0.00 | 0.00 | 80 | 1022.3 |
| 20260905175022 | 82 | 236 | 3.0 | 6.0 | 0.00 | 0.00 | 0.00 | 80 | 1022.4 |
| 20260905174023 | 82 | 219 | 3.0 | 5.0 | 0.00 | 0.00 | 0.00 | 79 | 1022.3 |
| 20260905173023 | 83 | 221 | 3.0 | 5.0 | 0.00 | 0.00 | 0.00 | 79 | 1022.3 |
| 20260905172021 | 83 | 219 | 4.0 | 7.0 | 0.00 | 0.00 | 0.00 | 78 | 1022.3 |
| 20260905170022 | 85 | 216 | 5.0 | 8.0 | 0.00 | 0.00 | 0.00 | 75 | 1022.2 |
| 20260905165021 | 85 | 199 | 5.0 | 11.0 | 0.00 | 0.00 | 0.00 | 73 | 1022.2 |
| 20260905164021 | 86 | 200 | 5.0 | 9.0 | 0.00 | 0.00 | 0.00 | 71 | 1022.3 |
| 20260905163020 | 86 | 211 | 5.0 | 9.0 | 0.00 | 0.00 | 0.00 | 70 | 1022.4 |
| 20260905162020 | 86 | 210 | 5.0 | 10.0 | 0.00 | 0.00 | 0.00 | 70 | 1022.5 |